Other Public Products
Issued by NWS Charleston, SC

Home | Current Version | Previous Version | Text Only | Print | Product List | Glossary On
Versions: 1 2 3 4 5 6 7 8 9 10 11 12 13 14 15 16 17 18 19 20 21 22 23 24 25 26 27 28 29 30 31 32 33 34 35 36 37 38 39 40 41 42 43 44 45 46 47 48 49 50
656
FPUS82 KCHS 241827
OPUCHS

TEST...KCHS/KSAV Gateway Observations...TEST
National Weather Service Charleston SC
100 PM EST FRI NOV 24 2017

NOTE: "fair" indicates few or no clouds below 12,000 feet with no
significant weather and/or obstructions to visibility.

SCZ050-WAZ558-NCZ071-TXZ119-213-PAZ071-DCZ001-FLZ074-172-MI076-
NYZ176-178-MAZ016-IL014-TNZ027-NJZ106-GAZ044-MD014-241900-

...Gateway Observations for Charleston International...

CITY           SKY/WX    TMP DP  RH WIND       PRES   REMARKS
Chas Airport   MOSUNNY   60  34  37 N7        29.94F
6HR MIN TEMP:  42; 6HR MAX TEMP:  61;

Seattle        CLOUDY    50  39  66 S15       30.09R
6HR MIN TEMP:  46; 6HR MAX TEMP:  50;

Charlotte      SUNNY     58  34  40 NE5       30.00F
6HR MIN TEMP:  27; 6HR MAX TEMP:  58;

Dallas DFW     MOSUNNY   71  36  27 SE7       29.89F
6HR MIN TEMP:  45; 6HR MAX TEMP:  71;

Dallas Love    MOSUNNY   69  37  30 SE10      29.90F
6HR MIN TEMP:  42; 6HR MAX TEMP:  69;

Philladelphia  SUNNY     50  26  39 VRB7      30.02F
6HR MIN TEMP:  32; 6HR MAX TEMP:  50;

Wash National  MOSUNNY   50  32  50 S9        30.03F
6HR MIN TEMP:  33; 6HR MAX TEMP:  51;

Baltimore      SUNNY     52  27  38 SE6       30.01F
6HR MIN TEMP:  26; 6HR MAX TEMP:  52;

Miami          PTSUNNY   79  67  66 W10       29.88F
6HR MIN TEMP:  72; 6HR MAX TEMP:  80;

Detroit        MOSUNNY   52  29  41 S20       29.75F
6HR MIN TEMP:  30; 6HR MAX TEMP:  52;

Newark         SUNNY     51  21  30 SW5       30.01F
6HR MIN TEMP:  31; 6HR MAX TEMP:  51;

Laguardia      SUNNY     49  19  30 SW9       30.01F
6HR MIN TEMP:  37; 6HR MAX TEMP:  49;

J F K          SUNNY     47  23  38 SW9       30.03F
6HR MIN TEMP:  33; 6HR MAX TEMP:  47;

Boston Logan   MOSUNNY   47  27  45 SW10      29.97F
6HR MIN TEMP:  32; 6HR MAX TEMP:  47;

Ft. Lauderdale MOSUNNY   79  67  66 W12       29.86F
6HR MIN TEMP:  70; 6HR MAX TEMP:  79;

Chicago O`Hare MOSUNNY   57  34  41 S18G30    29.59F
6HR MIN TEMP:  35; 6HR MAX TEMP:  57;

Chicago Midway MOSUNNY   56  35  45 S14G26    29.61F
6HR MIN TEMP:  37; 6HR MAX TEMP:  56;

Houston Bush   MOSUNNY   69  38  32 S6        30.01F
6HR MIN TEMP:  38; 6HR MAX TEMP:  69;

Houston Hobby  MOSUNNY   67  38  34 SW6       30.01F
6HR MIN TEMP:  41; 6HR MAX TEMP:  68;

Nashville      PTSUNNY   60  19  20 SW10      29.97F
6HR MIN TEMP:  30; 6HR MAX TEMP:  61;

Atlanta        SUNNY     59  44  57 CALM      29.99F
6HR MIN TEMP:  40; 6HR MAX TEMP:  59;


$$

GAZ044-118-TXZ119-213-NCZ071-DCZ001-MDZ014-506-PAZ021-071-NJZ106-
NYZ176-178-MAZ106-OHZ011-021-055-MIZ076-KYZ091-ILZ014-INZ047-
MNZ060-ONZ431-241900-

...Gateway Observations for Savannah International...

CITY           SKY/WX    TMP DP  RH WIND       PRES   REMARKS
Savannah Arpt  MOSUNNY   64  38  38 N7        29.94F
6HR MIN TEMP:  42; 6HR MAX TEMP:  64;

Atlanta        SUNNY     59  44  57 CALM      29.99F
6HR MIN TEMP:  40; 6HR MAX TEMP:  59;

Charlotte      SUNNY     58  34  40 NE5       30.00F
6HR MIN TEMP:  27; 6HR MAX TEMP:  58;

Dallas DFW     MOSUNNY   71  36  27 SE7       29.89F
6HR MIN TEMP:  45; 6HR MAX TEMP:  71;

Houston Bush   MOSUNNY   69  38  32 S6        30.01F
6HR MIN TEMP:  38; 6HR MAX TEMP:  69;

Wash National  MOSUNNY   50  32  50 S9        30.03F
6HR MIN TEMP:  33; 6HR MAX TEMP:  51;

Wash Dulles    SUNNY     51  29  42 S9        30.01F
6HR MIN TEMP:  25; 6HR MAX TEMP:  52;

Baltimore      SUNNY     52  27  38 SE6       30.01F
6HR MIN TEMP:  26; 6HR MAX TEMP:  52;

Philadelphia   SUNNY     50  26  39 VRB7      30.02F
6HR MIN TEMP:  32; 6HR MAX TEMP:  50;

Newark         SUNNY     51  21  30 SW5       30.01F
6HR MIN TEMP:  31; 6HR MAX TEMP:  51;

Laguardia      SUNNY     49  19  30 SW9       30.01F
6HR MIN TEMP:  37; 6HR MAX TEMP:  49;

J F K          SUNNY     47  23  38 SW9       30.03F
6HR MIN TEMP:  33; 6HR MAX TEMP:  47;

Boston         MOSUNNY   47  27  45 SW10      29.97F
6HR MIN TEMP:  32; 6HR MAX TEMP:  47;

Pittsburg      SUNNY     50  19  29 SW10      29.91F
6HR MIN TEMP:  26; 6HR MAX TEMP:  50;

Akron          SUNNY     49  23  36 S16G25    29.86F
6HR MIN TEMP:  28; 6HR MAX TEMP:  50;

Cleveland      MOSUNNY   51  26  37 SW15G24   29.84F
6HR MIN TEMP:  34; 6HR MAX TEMP:  51;

Cincinnati     MOSUNNY   53  25  33 S13       29.89F
6HR MIN TEMP:  28; 6HR MAX TEMP:  53;

Columbus       SUNNY     50  29  44 S9        29.88F
Detroit        MOSUNNY   52  29  41 S20       29.75F
6HR MIN TEMP:  30; 6HR MAX TEMP:  52;

Chicago O`Hare MOSUNNY   57  34  41 S18G30    29.59F
6HR MIN TEMP:  35; 6HR MAX TEMP:  57;

Minneapolis    MOSUNNY   58  40  51 NW14      29.36R
6HR MIN TEMP:  47; 6HR MAX TEMP:  58;

Indianapolis   PTSUNNY   54  30  40 S17       29.82F
6HR MIN TEMP:  30; 6HR MAX TEMP:  55;

Toronto Canada MOSUNNY   52  34  50 SW14G22   29.72F

$$




USA.gov is the U.S. government's official web portal to all federal, state and local government web resources and services.